Regional Weather Roundup
Issued by NWS Green Bay, WI

Home | Current Version | Previous Version | Graphics & Text | Print | Product List | Glossary Off
Versions: 1 2 3 4 5 6 7 8 9 10 11 12 13 14 15 16 17 18 19 20 21 22 23 24 25 26 27 28 29 30 31 32 33 34 35 36 37 38 39 40 41 42 43 44 45 46 47 48 49 50

000
ASUS43 KGRB 240010
RWRGRB

NORTH-CENTRAL AND NORTHEAST WISCONSIN REGIONAL WEATHER ROUNDUP
NATIONAL WEATHER SERVICE GREEN BAY WI
600 PM CST MON JAN 23 2017

WIZ005-009-010>012-018-019-240100-
NORTH CENTRAL WISCONSIN

CITY           SKY/WX    TMP DP  RH WIND       PRES   REMARKS
IRONWOOD       LGT RAIN  35  34  96 W5        29.79S FOG
MANITOWISH WTR FOG       33  33 100 CALM      29.77S VSB 1/2
ARBOR VITAE    DRZL/FOG  37  36  96 CALM      29.77R VSB 1
EAGLE RIVER    CLOUDY    35  35 100 NW3       29.75S
LAND O LAKES   CLOUDY    35  35  99 CALM      29.77S
RHINELANDER    CLOUDY    36  34  92 W7        29.77R
PHILLIPS       CLOUDY    34  34 100 CALM      29.77S
ANTIGO         CLOUDY    35  33  94 NW5       29.76R
TOMAHAWK       CLOUDY    34  33  96 W5        29.78R FOG
MERRILL        CLOUDY    35  35 100 NW5         N/A
$$

WIZ013-073-240100-
NORTHEAST WISCONSIN

CITY           SKY/WX    TMP DP  RH WIND       PRES   REMARKS
IRON MOUNTAIN  CLOUDY    35  32  88 CALM      29.76R
MARINETTE      NOT AVBL
OCONTO         CLOUDY    36  35  97 CALM      29.78S
$$

WIZ017-030-035>037-045-240100-
CENTRAL WISCONSIN

CITY           SKY/WX    TMP DP  RH WIND       PRES   REMARKS
MEDFORD        FOG       33  33 100 NW3       29.77S VSB 3/4
WAUSAU         CLOUDY    34  33  96 NW6       29.77R
MOSINEE        CLOUDY    34  34 100 NW5       29.79R
MARSHFIELD     CLOUDY    34  32  92 W7        29.78R FOG
WISC RAPIDS    CLOUDY    35  35 100 CALM      29.80R
STEVENS POINT  CLOUDY    33  33 100 CALM      29.79S
WAUPACA        CLOUDY    38  35  87 CALM      29.79R
SHAWANO        CLOUDY    38  35  90 CALM      29.78R
CLINTONVILLE   CLOUDY    36  34  93 W3        29.78R
WAUTOMA        CLOUDY    36  34  92 NW6       29.79S
$$

WIZ038-039-048-051-240100-
FOX VALLEY

CITY           SKY/WX    TMP DP  RH WIND       PRES   REMARKS
NWS GREEN BAY  CLOUDY    38  36  92 NW3       29.77F
APPLETON       CLOUDY    36  36 100 W9        29.76R
OSHKOSH        CLOUDY    36  33  89 W6        29.78R
FOND DU LAC    CLOUDY    37  33  85 W3        29.78R
$$

WIZ022-050-052-240100-
EAST CENTRAL WISCONSIN

CITY           SKY/WX    TMP DP  RH WIND       PRES   REMARKS
EPHRAIM        FOG       34  34 100 N3        29.76S VSB 1/2
WASHINGTON ISL FOG       33  33 100 NE5       29.77R VSB 1/2
STURGEON BAY   FOG       35  35 100 CALM      29.78R VSB 1/4
MANITOWOC      CLOUDY    37  35  92 MISG      29.78S
SHEBOYGAN      MOCLDY    36  33  89 NW6       29.77R
$$

LMZ563-521-522-541>543-240100-
LAKESHORE

STATION/POSITION TIME  TEMP    WIND        PRES    VSBY  WAVE
                       AIR SEA DIR/SP/G                  HT/PER
                 (UTC) (F)     (DEG/KT/KT) (MB)    (MI)  (FT/S)
SHEBOYGAN LKSHOR 0000   38     290/  7/  8 1008.5R
KEWAUNEE LKSHORE 2348   36     320/  3/  5 1007.9R
NORTHPORT PIER   2340   33     320/  5/  6 1008.1R
SISTER BAY LKSHO 2320   33     350/  5/  5   N/A
MENOMINEE LKSHOR 2348   35     280/  1/  1 1007.8R
$$




USA.gov is the U.S. government's official web portal to all federal, state and local government web resources and services.